"Pseudo-MPEC" for P11JzPu

Created 2023 Oct 5 17:22:15 UT using Find_Orb

Click here for an explanation of pseudo-MPECs

 
 Astrometry: 
     P11JzPu* C2023 09 15I`FTpD*=^a\a^FHr)%k'o^6Znc1CfqD@BhJ_LeWbM;.u4k!YrqxBF51
     P11JzPu  C2023 09 15V4$Q3r_F8'4=f`(CH/90_'AstrometryU:`'redacted;18IA'K2F51
     P11JzPu  C2023 09 15_*DclickHwK\:kvvhx,'bE.=_IDJ;Hherelvsl/2H9Vp6[,*('oZF51
     P11JzPu  C2023 09 15gPB29_q]AW+gTY3=k[VHQG]]Qd?23yycA1Z\r$PWforE^6Y!(nW*F51
     P11JzPu  C2023 09 15FXA]d_WvrVP\Ra8fx1^apGE,ZhO1LOjnfexplanation.-C^T4b,F51

Station data:
(F51) Pan-STARRS 1, Haleakala  (N20.707234 W156.255910)  US/Hawaii.
   Observers J. Bulger, T. Lowe, A. Schultz, M. Willman. Measurers K.
   Chambers, S. Chastel, T. de Boer, L. Denneau, J. Fairlamb, H. Flewelling,
   M. Huber, C.-C. Lin, E. Magnier, Y. Ramanjooloo, R. Wainscoat, R. Weryk.
   1.8-m Ritchey-Chrétien + CCD.

Orbital elements:  P11JzPu
   Perihelion 2023 Aug 28.14156 +/- 64.4 TT =  3:23:51 (JD 2460184.64156)
Epoch 2023 Sep 15.0 TT = JDT 2460202.5   Earth MOID: 0.3951   Ma: 0.0235
M   8.32698636 +/- 29               (J2000 ecliptic)             AutoNEOCP
n   0.46627746 +/- 0.238            Peri.  188.30788 +/- 70
a   1.64704867 +/- 0.56             Node   150.61245 +/- 20
e   0.1473200 +/- 0.205             Incl.   27.81539 +/- 13
P   2.11/772.06d           H 22.21  G  0.15   U 11.8  SR
q 1.40440538 +/- 0.278    Q 1.88969196 +/- 2.71
From 5 observations 2023 Sept. 15 (1.8 hr); mean residual 0".18
Residuals in arcseconds: 
230915 F51  .07+  .25-    230915 F51  .11+  .22+    230915 F51  .11-  .28-    
230915 F51  .17-  .09+    230915 F51  .10+  .22+    

Ephemerides (geocentric):
Date (UTC) HH   RA             Dec           delta  r     elong  mag " sig PA
---- --------  ------------   ------------  ------ ------ -----  --- --------
2023 10 05 17  23 34 13.012   -45 41 08.26  .57085 1.4205 127.3 23.2 346'  10
2023 10 05 18  23 34 13.476   -45 41 47.60  .57114 1.4206 127.3 23.2 348'  11
2023 10 05 19  23 34 13.944   -45 42 26.80  .57144 1.4206 127.2 23.2 350'  11
2023 10 05 20  23 34 14.414   -45 43 05.88  .57173 1.4206 127.2 23.2 352'  11
2023 10 05 21  23 34 14.888   -45 43 44.83  .57202 1.4207 127.2 23.2 355'  11
2023 10 05 22  23 34 15.365   -45 44 23.65  .57231 1.4207 127.1 23.2 357'  11
2023 10 05 23  23 34 15.845   -45 45 02.35  .57260 1.4207 127.1 23.2 359'  12
2023 10 06 00  23 34 16.328   -45 45 40.91  .57289 1.4208 127.1 23.2 362'  12
2023 10 06 01  23 34 16.814   -45 46 19.35  .57318 1.4208 127.0 23.2 364'  12
2023 10 06 02  23 34 17.303   -45 46 57.66  .57347 1.4208 127.0 23.2 366'  13
2023 10 06 03  23 34 17.795   -45 47 35.84  .57377 1.4209 127.0 23.2 369'  13
2023 10 06 04  23 34 18.290   -45 48 13.89  .57406 1.4209 126.9 23.2 371'  13
2023 10 06 05  23 34 18.789   -45 48 51.81  .57435 1.4209 126.9 23.2 374'  14
2023 10 06 06  23 34 19.290   -45 49 29.61  .57464 1.4210 126.8 23.2 376'  14
2023 10 06 07  23 34 19.795   -45 50 07.28  .57493 1.4210 126.8 23.2 379'  14
2023 10 06 08  23 34 20.303   -45 50 44.83  .57523 1.4210 126.8 23.2 382'  15
2023 10 06 09  23 34 20.813   -45 51 22.24  .57552 1.4211 126.7 23.2 384'  15
2023 10 06 10  23 34 21.327   -45 51 59.53  .57581 1.4211 126.7 23.2 387'  16
2023 10 06 11  23 34 21.844   -45 52 36.69  .57610 1.4212 126.7 23.2 390'  16
2023 10 06 12  23 34 22.365   -45 53 13.73  .57640 1.4212 126.6 23.2 393'  17
2023 10 06 13  23 34 22.888   -45 53 50.64  .57669 1.4212 126.6 23.2 396'  17
2023 10 06 14  23 34 23.414   -45 54 27.42  .57698 1.4213 126.6 23.2 399'  18
2023 10 06 15  23 34 23.944   -45 55 04.08  .57728 1.4213 126.5 23.2 403'  18
2023 10 06 16  23 34 24.477   -45 55 40.61  .57757 1.4213 126.5 23.2 406'  19
2023 10 06 17  23 34 25.013   -45 56 17.02  .57786 1.4214 126.5 23.2 410'  20
2023 10 06 18  23 34 25.552   -45 56 53.30  .57816 1.4214 126.4 23.2 414'  20
2023 10 06 19  23 34 26.094   -45 57 29.45  .57845 1.4214 126.4 23.2 418'  21
2023 10 06 20  23 34 26.639   -45 58 05.48  .57874 1.4215 126.4 23.2 423'  22
2023 10 06 21  23 34 27.188   -45 58 41.39  .57904 1.4215 126.3 23.2 428'  23
2023 10 06 22  23 34 27.739   -45 59 17.17  .57933 1.4215 126.3 23.2 433'  24
2023 10 06 23  23 34 28.294   -45 59 52.82  .57962 1.4216 126.3 23.2 439'  26
2023 10 07 00  23 34 28.852   -46 00 28.35  .57992 1.4216 126.2 23.2 445'  27
2023 10 07 01  23 34 29.413   -46 01 03.75  .58021 1.4216 126.2 23.2 452'  28
2023 10 07 02  23 34 29.977   -46 01 39.03  .58051 1.4217 126.2 23.2 460'  30
2023 10 07 03  23 34 30.545   -46 02 14.19  .58080 1.4217 126.1 23.2 469'  31
2023 10 07 04  23 34 31.116   -46 02 49.22  .58110 1.4218 126.1 23.2 479'  33
2023 10 07 05  23 34 31.690   -46 03 24.13  .58139 1.4218 126.1 23.2 490'  35
2023 10 07 06  23 34 32.267   -46 03 58.91  .58169 1.4218 126.0 23.2 502'  37
2023 10 07 07  23 34 32.847   -46 04 33.57  .58198 1.4219 126.0 23.2 516'  39
2023 10 07 08  23 34 33.430   -46 05 08.11  .58228 1.4219 126.0 23.2 532'  42
2023 10 07 09  23 34 34.017   -46 05 42.52  .58257 1.4219 125.9 23.2 550'  44
2023 10 07 10  23 34 34.607   -46 06 16.81  .58287 1.4220 125.9 23.2 570'  46
2023 10 07 11  23 34 35.200   -46 06 50.97  .58316 1.4220 125.9 23.2 591'  48
2023 10 07 12  23 34 35.796   -46 07 25.02  .58346 1.4220 125.8 23.2 614'  51
2023 10 07 13  23 34 36.395   -46 07 58.94  .58375 1.4221 125.8 23.2 638'  53
2023 10 07 14  23 34 36.998   -46 08 32.73  .58405 1.4221 125.8 23.2 662'  55
2023 10 07 15  23 34 37.604   -46 09 06.41  .58434 1.4221 125.7 23.2 687'  56
2023 10 07 16  23 34 38.213   -46 09 39.96  .58464 1.4222 125.7 23.2 711'  58